Regional Weather Roundup
Issued by NWS

Home | Current Version | Previous Version | Graphics & Text | Print | Product List | Glossary Off
Versions: 1 2 3 4 5 6 7 8 9 10 11 12 13 14 15 16 17 18 19 20 21 22 23 24 25 26 27 28 29 30 31 32 33 34 35 36 37 38 39 40 41 42 43 44 45 46 47 48 49 50

000
ASUS43 KFSD 301810
RWRSD

WEATHER ROUNDUP FOR SOUTH DAKOTA
NATIONAL WEATHER SERVICE SIOUX FALLS SD
100 PM CDT FRI SEP 30 2016

NOTE: "FAIR" INDICATES FEW OR NO CLOUDS BELOW 12,000 FEET WITH NO
SIGNIFICANT WEATHER AND/OR OBSTRUCTIONS TO VISIBILITY.


SDZ001>005-009-010-012>017-301900-
NORTHWEST AND NORTH CENTRAL SOUTH DAKOTA

CITY           SKY/WX    TMP DP  RH WIND       PRES   REMARKS
BUFFALO          N/A     66  45  46 SE13      29.98F
FAITH            N/A     65  46  50 S20G26    30.08S
MOBRIDGE       CLOUDY    70  47  43 SE23      30.12F
$$

SDZ012>016-024>037-041>051-057-063-072>074-301900-
SOUTHWEST AND SOUTH CENTRAL SOUTH DAKOTA

CITY           SKY/WX    TMP DP  RH WIND       PRES   REMARKS
RAPID CTY ARPT PTSUNNY   66  47  50 SE14      30.07F
PIERRE         MOSUNNY   69  47  45 SE20G28   30.14F
CUSTER         CLOUDY    70  45  40 W8        30.18F
ELLSWORTH AFB  CLOUDY    65  47  50 S16       30.05F
PHILIP         CLOUDY    72  47  40 SE17G25   30.09F
PINE RIDGE     PTSUNNY   73  45  36 S15G21    30.12F
WINNER         FAIR      69  48  47 S18G25    30.20F
$$

SDZ004>011-016>023-039-040-301900-
NORTHEAST SOUTH DAKOTA

CITY           SKY/WX    TMP DP  RH WIND       PRES   REMARKS
ABERDEEN       SUNNY     69  46  43 S18G24    30.23F
WATERTOWN      MOSUNNY   67  49  52 SE15      30.28F
BROOKINGS      CLOUDY    67  49  52 SE8       30.28F
SISSETON         N/A     68  51  54 S10G20    30.27F
$$

SDZ017-020-022-023-036>040-048>070-301900-
SOUTHEAST SOUTH DAKOTA

CITY           SKY/WX    TMP DP  RH WIND       PRES   REMARKS
SIOUX FALLS    MOSUNNY   71  51  49 E12       30.27F
HURON          MOSUNNY   71  46  40 S13G22    30.24F
CHAMBERLAIN    MOSUNNY   70  50  49 S12G21    30.21F
MITCHELL       PTSUNNY   70  47  43 SE12G21   30.25F
YANKTON        SUNNY     70  50  49 SE12      30.24F
$$

ABBREVIATIONS USED IN REMARKS
   TC - TEMPERATURE IN CELSIUS
  WCI - WIND CHILL INDEX
   HX - HEAT INDEX
  VSB - VISIBILITY




USA.gov is the U.S. government's official web portal to all federal, state and local government web resources and services.